This is the latest recevied weather packets stored in our database for station/object OH5GWF-1. If no packets are shown the sender has not sent any weather packets the latest 10 day(s).
| Time | Temp. | Humidity | Pressure | Rain* | Wind** | Luminosity | Snow |
|---|---|---|---|---|---|---|---|
| 1777623592 | 20.56° C | 49% | 1019.6 hPa | 0 mm | - | - | - |
| 1777623171 | 20° C | 50% | 1019.8 hPa | 0 mm | - | - | - |
| 1777622761 | 20° C | 49% | 1019.9 hPa | 0 mm | - | - | - |
| 1777622338 | 20.56° C | 49% | 1019.8 hPa | 0 mm | - | - | - |
| 1777621916 | 20.56° C | 50% | 1020 hPa | 0 mm | - | - | - |
| 1777621493 | 20° C | 50% | 1020.2 hPa | 0 mm | - | - | - |
| 1777621071 | 20° C | 50% | 1020 hPa | 0 mm | - | - | - |
| 1777620660 | 19.44° C | 51% | 1020.3 hPa | 0 mm | - | - | - |
| 1777620237 | 20.56° C | 47% | 1020.3 hPa | 0 mm | - | - | - |
| 1777619816 | 21.11° C | 50% | 1020.3 hPa | 0 mm | - | - | - |
| 1777619394 | 21.67° C | 47% | 1020.3 hPa | 0 mm | - | - | - |
| 1777618971 | 20.56° C | 50% | 1020.4 hPa | 0 mm | - | - | - |
| 1777618560 | 20° C | 50% | 1020.4 hPa | 0 mm | - | - | - |
| 1777618138 | 20.56° C | 49% | 1020.3 hPa | 0 mm | - | - | - |
| 1777617715 | 20.56° C | 55% | 1020.3 hPa | 0 mm | - | - | - |
| 1777617293 | 19.44° C | 56% | 1020.4 hPa | 0 mm | - | - | - |
| 1777616871 | 18.33° C | 59% | 1020.4 hPa | 0 mm | - | - | - |
| 1777616460 | 17.78° C | 61% | 1020.5 hPa | 0 mm | - | - | - |
| 1777616037 | 16.11° C | 64% | 1020.4 hPa | 0 mm | - | - | - |
| 1777615616 | 15.56° C | 66% | 1020.4 hPa | 0 mm | - | - | - |
| 1777615194 | 15° C | 68% | 1020.5 hPa | 0 mm | - | - | - |
| 1777614772 | 14.44° C | 67% | 1020.4 hPa | 0 mm | - | - | - |
| 1777614349 | 15° C | 69% | 1020.4 hPa | 0 mm | - | - | - |
| 1777613939 | 15° C | 72% | 1020.5 hPa | 0 mm | - | - | - |
| 1777613518 | 13.89° C | 76% | 1020.5 hPa | 0 mm | - | - | - |
* Rain latest hour (hover to see other rain measurements)
** Current wind speed in m/s (hover to see current wind gust speed)